This is the latest recevied weather packets stored in our database for station/object EA5CBT-13. If no packets are shown the sender has not sent any weather packets the latest 10 day(s).
| Time | Temp. | Humidity | Pressure | Rain* | Wind** | Luminosity | Snow |
|---|---|---|---|---|---|---|---|
| 1777957537 | 14.44° C | 72% | 1008.7 hPa | 0 mm | - | - | - |
| 1777955208 | 14.44° C | 75% | 1008.6 hPa | 0 mm | - | - | - |
| 1777952758 | 15° C | 73% | 1008.6 hPa | 0 mm | - | - | - |
| 1777943766 | 16.67° C | 80% | 1008.9 hPa | 0 mm | - | - | - |
| 1777940162 | 16.67° C | 80% | 1009.3 hPa | 0 mm | - | - | - |
| 1777935364 | 16.11° C | 81% | 1009.5 hPa | 0 mm | - | - | - |
| 1777934756 | 16.11° C | 80% | 1009.3 hPa | 0 mm | - | - | - |
| 1777934149 | 16.67° C | 80% | 1009.3 hPa | 0 mm | - | - | - |
| 1777932327 | 17.78° C | 75% | 1009.1 hPa | 0 mm | - | - | - |
| 1777930562 | 17.78° C | 75% | 1009.1 hPa | 0 mm | - | - | - |
| 1777926976 | 17.78° C | 73% | 1008.6 hPa | 0 mm | - | - | - |
| 1777925173 | 18.33° C | 72% | 1008.1 hPa | 0 mm | - | - | - |
| 1777913725 | 22.78° C | 53% | 1007.5 hPa | 0 mm | - | - | - |
| 1777901144 | 25° C | 43% | 1008.2 hPa | 0 mm | - | - | - |
| 1777899929 | 25° C | 50% | 1008.5 hPa | 0 mm | - | - | - |
| 1777897598 | 24.44° C | 50% | 1008.9 hPa | 0 mm | - | - | - |
| 1777889172 | 23.89° C | 62% | 1010.5 hPa | 0 mm | - | - | - |
| 1777886741 | 23.33° C | 63% | 1010.5 hPa | 0 mm | - | - | - |
| 1777881941 | 19.44° C | 76% | 1010.4 hPa | 0 mm | - | - | - |
| 1777880119 | 19.44° C | 76% | 1010.6 hPa | 0 mm | - | - | - |
| 1777877750 | 18.33° C | 80% | 1010.4 hPa | 0 mm | - | - | - |
| 1777876556 | 18.33° C | 79% | 1010.4 hPa | 0 mm | - | - | - |
| 1777875928 | 18.33° C | 80% | 1010.2 hPa | 0 mm | - | - | - |
| 1777874773 | 18.33° C | 80% | 1010 hPa | 0 mm | - | - | - |
| 1777873579 | 18.33° C | 81% | 1009.7 hPa | 0 mm | - | - | - |
* Rain latest hour (hover to see other rain measurements)
** Current wind speed in m/s (hover to see current wind gust speed)